User: anonymous   Login
Location: İstanbul
(41.0082°N, 28.9784°E)
Time: 08:00:18
(UTC+03:00)
Language:

ITUPSAT 1 - Orbit

View from above orbital plane
View from above orbital plane
View from above satellite
View from above satellite

Ground track
Ground track

The orbit data is extracted from the following two-line orbital elements,

1 35935U 09051E   25191.60805043  .00000486  00000-0  11233-3 0  9995
2 35935  98.4295  88.2348 0006732 209.8258 150.2559 14.59593127838898
Epoch (UTC): 10 July 2025 14:35:35
Eccentricity: 0.0006732
inclination: 98.4295°
perigee height: 690 km
apogee height: 699 km
right ascension of ascending node: 88.2348°
argument of perigee: 209.8258°
revolutions per day: 14.59593127
mean anomaly at epoch: 150.2559°
orbit number at epoch: 83889

The dashed part of the orbit path shows where the satellite is in the earth's shadow,  

DLR